Weather History for Albany, GA

Change the Weather History Date:

Sunday, June 8, 2014

  Actual Average Record
Temperature  
Mean Temperature 80 °F 80 °F  
Max Temperature 91 °F 91 °F 102 °F (2008)
Min Temperature 68 °F 69 °F 54 °F (1977)
Degree Days  
Heating Degree Days 0 0  
Month to date heating degree days 0 0  
Since 1 June heating degree days 0 0  
Since 1 July heating degree days 1945 1838  
Cooling Degree Days 15 15  
Month to date cooling degree days 110 112  
Year to date cooling degree days 504 552  
Since 1 June cooling degree days 110 112  
Growing Degree Days 30 (Base 50)    
Moisture  
Dew Point 70 °F    
Average Humidity 78    
Maximum Humidity 100    
Minimum Humidity 56    
Precipitation  
Precipitation 0.67 in - 2.16 in (2005)
Sea Level Pressure  
Sea Level Pressure 29.97 in    
Wind  
Wind Speed 5 mph (West)    
Max Wind Speed 31 mph    
Max Gust Speed 41 mph    
Visibility 8 miles    
Events Rain , Thunderstorm    
T = Trace of Precipitation, MM = Missing Value Source: NWS Daily Summary

Daily Weather History Graph

Daily Weather History Graph

Search for Another Location

Airport:

Trip Planner

Search our weather history database for the weather conditions in past years. The results will help you decide how hot, cold, wet, or windy it might be!

Date:

Astronomy

Jun. 08, 2014 Rise Set
Actual Time 6:31 AM EDT 8:40 PM EDT
Civil Twilight 6:03 AM EDT 9:08 PM EDT
Nautical Twilight 5:29 AM EDT 9:42 PM EDT
Astronomical Twilight 4:53 AM EDT 10:19 PM EDT
Moon 4:12 PM EDT (6/8) 3:06 AM EDT (6/8)
Length of Visible Light 15h 04m
Length of Day
14h 08m
Waxing Gibbous, 77% of the Moon is Illuminated
Jun 8
Waxing Gibbous
Jun 13
Full
Jun 19
Last Quarter
Jun 27
New
Jul 5
First Quarter

Hourly Weather History & Observations

Time (EDT) Temp. Heat Index Dew Point Humidity Pressure Visibility Wind Dir Wind Speed Gust Speed Precip Events Conditions
12:53 AM 77.0 °F - 73.0 °F 88% 29.97 in 10.0 mi SSW 5.8 mph - N/A   Clear
1:53 AM 77.0 °F - 73.9 °F 90% 29.98 in 10.0 mi West 4.6 mph - N/A   Clear
2:53 AM 75.9 °F - 73.9 °F 94% 29.97 in 8.0 mi WSW 3.5 mph - N/A   Clear
3:27 AM 75.2 °F - 73.4 °F 94% 29.98 in 8.0 mi West 4.6 mph - N/A   Scattered Clouds
3:36 AM 75.2 °F - 75.2 °F 100% 29.98 in 8.0 mi West 4.6 mph - N/A   Mostly Cloudy
3:53 AM 75.9 °F - 75.0 °F 97% 29.98 in 8.0 mi WNW 6.9 mph - N/A   Overcast
4:24 AM 75.2 °F - 69.8 °F 83% 30.02 in 9.0 mi NW 27.6 mph 41.4 mph 0.01 in Rain , Thunderstorm Light Thunderstorms and Rain
4:42 AM 71.6 °F - 66.2 °F 83% 30.01 in 7.0 mi NNW 15.0 mph 33.4 mph 0.17 in Rain , Thunderstorm Light Thunderstorms and Rain
4:53 AM 70.0 °F - 66.9 °F 90% 30.00 in 10.0 mi NNW 12.7 mph - 0.18 in   Mostly Cloudy
5:53 AM 69.1 °F - 66.9 °F 93% 29.91 in 10.0 mi SE 9.2 mph - N/A   Clear
6:53 AM 69.1 °F - 66.9 °F 93% 29.95 in 10.0 mi West 5.8 mph - N/A   Clear
7:46 AM 69.8 °F - 68.0 °F 94% 29.99 in 10.0 mi NNW 6.9 mph - N/A   Partly Cloudy
7:53 AM 70.0 °F - 68.0 °F 93% 29.99 in 10.0 mi NW 6.9 mph - N/A   Partly Cloudy
8:53 AM 73.0 °F - 68.0 °F 84% 30.01 in 10.0 mi West 4.6 mph - N/A   Partly Cloudy
9:53 AM 75.9 °F - 69.1 °F 79% 30.02 in 10.0 mi West 4.6 mph - N/A   Clear
10:53 AM 79.0 °F - 70.0 °F 74% 30.01 in 10.0 mi WSW 4.6 mph - N/A   Clear
11:53 AM 84.0 °F 87.0 °F 68.0 °F 58% 30.01 in 10.0 mi SSW 8.1 mph - N/A   Clear
12:53 PM 86.0 °F 91.5 °F 71.1 °F 61% 30.01 in 10.0 mi SSW 8.1 mph - N/A   Clear
1:53 PM 87.1 °F 92.8 °F 71.1 °F 59% 29.99 in 10.0 mi West 5.8 mph - N/A   Partly Cloudy
2:53 PM 90.0 °F 97.9 °F 73.0 °F 57% 29.97 in 10.0 mi WNW 8.1 mph - N/A   Scattered Clouds
4:53 PM 90.0 °F 96.9 °F 72.0 °F 55% 29.91 in 10.0 mi Variable 3.5 mph - N/A   Partly Cloudy
5:31 PM 80.6 °F 85.4 °F 73.4 °F 79% 29.93 in 2.5 mi North 19.6 mph 26.5 mph 0.06 in Rain , Thunderstorm Heavy Thunderstorms and Rain
5:35 PM 78.8 °F - 69.8 °F 74% 29.93 in 0.8 mi NE 18.4 mph 38.0 mph 0.27 in Rain , Thunderstorm Heavy Thunderstorms and Rain
5:43 PM 75.2 °F - 64.4 °F 69% 29.93 in 1.0 mi ENE 13.8 mph - 0.42 in Rain , Thunderstorm Heavy Thunderstorms and Rain
5:51 PM 73.4 °F - 66.2 °F 78% 29.92 in 3.0 mi ENE 5.8 mph - 0.49 in Rain , Thunderstorm Light Thunderstorms and Rain
5:52 PM 73.9 °F - 66.9 °F 79% 29.92 in 4.0 mi East 5.8 mph - 0.49 in Rain , Thunderstorm Light Thunderstorms and Rain
5:57 PM 77.0 °F - 68.0 °F 74% 29.91 in 10.0 mi SE 3.5 mph - 0.00 in Thunderstorm Thunderstorm
6:22 PM 75.2 °F - 71.6 °F 89% 29.91 in 10.0 mi Calm Calm - 0.00 in   Partly Cloudy
6:53 PM 75.9 °F - 73.0 °F 91% 29.91 in 10.0 mi Calm Calm - 0.00 in   Clear
7:53 PM 77.0 °F - 70.0 °F 79% 29.97 in 10.0 mi West 5.8 mph - N/A   Clear
8:53 PM 75.9 °F - 69.1 °F 79% 29.94 in 10.0 mi SW 4.6 mph - N/A   Clear
9:53 PM 75.0 °F - 70.0 °F 84% 29.93 in 10.0 mi Calm Calm - N/A   Clear
10:53 PM 73.9 °F - 71.1 °F 91% 29.99 in 10.0 mi WNW 4.6 mph - N/A   Clear
11:53 PM 73.9 °F - 71.1 °F 91% 29.97 in 10.0 mi Calm Calm - N/A   Clear